Weather in Zhelannoye

Russia / Omsk Oblast     54°09′45″N   72°34′40″E
temp.,
°C
wind,
m/s
gust,
m/s
humid.,
%
clouds,
%
prec.,
mm/h
press.,
hPa
HPBL,
m
6 march, sat
sat600:00−3sw91788100 0.1 1009913
03:00−4sw101891100 0.2 1007961
06:00−2sw111987100 1.2 10051022
09:00−1sw121992100 0.1 10041096
12:00−2w91484100 0.5 10071134
15:00−5w7128356 0.0 1009903
18:00−8w5118728 0.0 1010313
21:00−12w45888 0.0 101275
7 march, sun
sun700:00−14w34854 0.0 101438
03:00−16wsw34880 0.0 101542
06:00−16wsw448735 0.0 101656
09:00−15sw3487100 0.0 101774
12:00−11ssw348555 0.0 1018141
15:00−8sse468485 0.0 1016251
18:00−7se7129292 0.1 1013349
21:00−1s81495100 0.7 1010683
8 march, mon
mon800:00+1s91786100 0.9 1007721
03:000ssw91787100 0.0 1005697
06:00−1ssw91886100 0.2 1002586
09:00−2s91684100 0.1 1000775
12:00−7w101590100 1.6 1002641
15:00−8w91487100 0.0 1008747
18:00−11w71389100 0.0 1013522
21:00−14wsw6139067 0.0 1016327
9 march, tue
tue900:00−15sw5119170 0.0 1018215
03:00−16sw5108925 0.0 1019170
06:00−16ssw4108814 0.0 1020147
09:00−15ssw499066 0.0 1020194
12:00−11ssw6108771 0.0 1019331
15:00−8ssw7128570 0.0 1017485
18:00−9s6138477 0.0 1015352
21:00−11ssw6128325 0.0 1014251
10 march, wed
wed1000:00−13sw5108537 0.0 1014188
03:00−12sw598976 0.0 1013179
06:00−13sw469388 0.0 1013102
09:00−11sw2494100 0.0 101294
12:00−8ssw1287100 0.0 1011189
15:00−7ne1188100 0.1 1009251
18:00−7nne2495100 0.3 1007258
21:00−8nnw2396100 0.6 100796